Wind_Speed
21 24 24 23 21 19 17 13 10 11 12 12 13 12 13 14 13 13 13 12 9 8 8 8 7 4 4 6 5 4 5 4 5 5 5 4 4 3 3 2 1 3 6
21 23 22 22 21 20 18 16 12 11 11 11 11 11 12 13 12 12 12 12 11 10 10 9 8 6 4 4 3 2 2 1 3 5 5 5 5 5 5 6 4 1 2
20 21 19 18 19 19 18 16 14 12 10 10 10 10 11 11 11 10 10 11 12 12 12 11 9 7 6 4 3 2 1 1 2 3 4 5 6 7 8 8 9 7 4
16 17 15 15 16 17 17 16 14 12 11 10 9 9 10 10 10 10 12 12 12 12 12 11 10 9 8 6 6 4 1 1 1 2 4 5 5 5 4 5 8 11 9
11 12 12 12 13 14 15 15 15 14 12 11 9 8 8 9 10 10 12 13 12 11 11 11 9 9 8 8 7 5 3 2 2 5 6 7 6 4 4 5 6 8 10
7 8 9 10 10 10 11 13 13 14 13 12 11 10 8 8 8 10 12 13 13 11 9 9 9 9 7 6 6 6 6 5 4 6 7 8 7 7 7 8 8 8 9
5 4 5 8 8 9 8 9 10 12 12 12 12 11 9 8 9 10 12 12 12 11 8 8 8 8 8 7 6 6 6 6 6 6 7 7 8 9 10 11 11 10 9
7 6 3 1 4 5 6 7 8 9 10 10 10 11 11 9 8 9 11 12 12 11 8 7 8 9 9 9 7 6 7 7 7 8 9 8 8 9 11 12 12 12 9
9 9 7 5 3 2 3 4 5 5 6 7 8 8 8 8 8 9 10 11 12 13 10 7 8 9 9 9 9 8 7 8 7 10 12 11 11 11 10 11 13 13 11
8 10 10 10 9 9 8 6 6 5 5 6 6 7 7 5 5 7 9 10 10 10 10 8 7 7 7 7 7 8 7 7 8 9 12 14 14 10 6 11 11 14 14
9 10 11 14 16 15 14 13 11 10 9 9 10 9 9 7 6 6 8 10 11 10 8 6 7 6 6 7 8 8 8 7 8 10 11 12 12 4 9 14 12 14 16
9 11 11 13 17 17 16 16 15 14 13 12 12 14 14 13 11 10 9 9 10 10 8 7 7 8 7 8 8 9 8 7 7 8 11 11 9 9 12 13 15 15 16
11 13 13 15 17 17 15 15 16 16 15 14 14 14 16 16 15 14 12 11 11 10 9 9 9 9 10 8 8 9 8 7 8 8 10 11 12 12 13 13 14 14 16
16 18 18 19 20 15 12 11 12 11 11 10 12 16 19 19 18 17 16 16 14 12 12 11 11 12 11 10 10 12 11 9 8 9 11 13 13 13 15 13 12 13 14
24 22 20 21 20 13 11 10 10 9 10 11 14 16 17 17 16 18 18 18 18 16 16 15 14 14 13 13 14 15 14 12 10 10 12 13 14 14 16 16 13 13 13
31 25 23 22 19 15 13 12 11 13 15 16 17 17 17 16 15 16 17 18 18 18 18 19 20 19 18 17 17 17 17 16 14 11 11 13 15 15 16 16 16 13 13
30 26 28 29 22 18 18 16 15 15 15 17 17 18 18 18 17 16 16 16 17 18 20 22 24 23 24 22 20 19 19 17 14 13 12 14 17 17 16 16 15 14 14
32 31 29 33 30 24 24 23 22 21 19 17 16 18 18 19 20 21 19 18 19 20 21 22 24 24 25 27 24 21 20 17 15 14 14 16 17 17 16 16 15 15 15
33 34 29 31 29 25 26 25 23 23 22 19 18 18 18 18 21 22 22 21 22 22 20 20 20 22 24 26 25 22 21 20 18 16 17 19 18 17 15 16 16 17 16
20 21 27 30 27 26 25 25 26 27 26 24 24 23 22 21 21 22 22 22 23 25 25 23 22 22 24 25 24 21 22 22 20 18 19 20 17 15 15 16 17 17 15
18 21 29 28 29 33 30 29 33 32 30 27 26 25 23 23 24 25 26 27 28 28 27 26 24 23 25 26 24 23 22 23 21 19 19 19 17 15 14 16 17 17 14
26 31 32 27 31 44 39 36 39 35 32 27 24 24 23 25 27 29 29 28 27 27 26 23 23 23 24 26 25 26 26 25 21 20 19 19 17 14 14 16 17 17 17
36 42 41 34 44 51 47 42 42 36 28 25 26 27 26 27 30 30 28 28 27 25 24 21 21 22 25 25 25 24 24 25 22 20 19 18 15 14 14 16 17 16 18
47 46 44 41 43 47 42 38 35 31 24 27 30 29 28 28 30 30 28 28 29 27 25 24 22 22 23 24 24 24 22 23 22 18 19 18 13 12 12 15 16 15 14
48 45 41 43 48 51 48 38 37 35 31 30 31 30 29 29 30 31 30 30 32 29 28 26 23 21 21 23 24 24 22 21 22 18 17 15 14 12 13 14 14 14 15
35 39 39 47 47 50 52 44 39 38 35 32 32 32 32 33 35 34 34 34 35 32 30 26 22 22 21 21 23 24 24 23 22 17 14 16 15 13 13 15 16 16 14
Wind_Direction
90 83 79 75 71 69 69 69 70 72 72 70 64 57 56 55 53 52 49 49 49 44 34 36 53 71 148 170 180 201 216 210 190 183 187 213 211 190 176 207 64 55 44
90 83 77 74 72 70 68 68 68 71 74 70 65 59 56 54 50 50 50 48 46 46 44 43 54 59 82 137 163 180 228 228 171 182 194 218 235 245 249 247 240 191 25
94 85 77 71 70 69 69 70 69 70 69 67 67 67 65 56 50 46 45 44 39 41 45 47 51 58 64 75 91 83 98 75 146 196 234 251 261 270 264 247 239 243 249
95 90 82 73 67 66 65 66 66 66 70 70 65 68 66 58 47 39 38 36 34 34 42 49 55 57 56 51 58 62 83 203 184 333 322 294 279 273 275 260 240 245 246
101 94 88 78 70 67 66 63 60 54 51 49 42 39 41 42 41 35 30 28 28 31 39 46 53 57 55 56 54 47 33 1 275 301 318 320 311 277 277 303 284 247 250
124 107 98 89 79 73 68 64 61 59 51 44 34 23 15 15 17 24 25 23 21 24 32 42 49 48 49 57 54 37 15 353 331 323 319 310 301 280 279 297 290 256 252
184 147 108 91 81 77 75 65 60 59 57 47 39 32 19 3 359 6 15 17 19 22 28 31 39 37 31 34 37 20 6 351 338 326 311 312 311 303 284 292 289 276 269
237 240 217 135 68 54 56 52 51 56 56 50 38 37 33 29 13 2 6 10 10 17 24 30 26 24 20 14 17 9 352 348 347 328 329 326 313 302 284 282 291 287 269
243 258 261 263 284 315 359 12 16 31 35 37 34 33 28 29 29 19 11 9 6 6 6 17 24 19 17 9 3 359 352 341 340 333 332 329 324 311 280 272 277 280 257
243 258 270 277 281 287 297 304 301 313 327 335 350 2 2 3 10 13 2 357 353 356 357 2 18 15 11 2 353 351 352 344 338 337 333 331 331 316 265 290 275 254 252
252 259 272 285 291 293 295 294 288 285 292 305 313 322 327 328 329 333 335 334 337 342 350 6 2 357 357 349 344 342 343 345 340 333 332 330 338 297 277 292 275 268 254
266 272 274 282 284 286 289 289 286 278 277 290 304 309 310 308 306 303 306 308 323 330 335 348 344 331 334 338 335 332 338 342 334 323 321 325 325 312 301 291 290 290 274
282 288 295 292 286 284 283 282 281 277 275 278 291 298 300 297 293 295 296 306 311 311 319 323 319 313 318 323 319 316 329 340 331 323 312 314 317 309 307 307 302 296 290
296 304 304 297 295 297 288 275 274 276 278 286 292 295 297 297 297 299 301 301 298 295 297 303 305 305 306 304 302 304 311 323 323 322 316 312 312 309 302 304 309 300 296
272 285 297 295 287 280 284 288 281 269 269 288 293 294 294 293 296 296 295 295 297 293 289 292 295 297 297 293 291 292 294 299 306 314 311 309 311 310 305 300 300 302 301
263 268 274 274 270 269 274 283 288 282 284 290 289 287 286 285 284 283 289 295 295 294 292 292 297 296 293 290 292 293 291 291 292 298 306 308 308 305 302 300 300 307 309
258 267 279 285 280 272 269 271 278 285 286 289 291 288 284 281 278 277 282 284 285 289 294 298 300 300 296 291 288 289 288 288 285 292 301 304 305 301 295 295 296 301 307
259 266 274 282 278 274 272 271 280 290 295 297 292 288 289 287 281 275 274 283 288 294 300 300 299 301 300 296 291 287 291 291 290 289 294 304 307 301 293 288 284 288 292
259 254 250 267 275 278 277 276 279 286 295 299 293 289 290 288 283 279 280 288 293 296 298 297 297 304 301 297 293 288 289 291 293 294 299 306 305 299 293 285 280 280 288
251 229 240 260 275 279 279 281 281 281 286 287 285 284 286 286 283 284 287 290 292 292 295 297 300 302 300 299 297 291 286 289 294 297 302 303 302 298 292 285 279 276 281
253 235 246 263 281 278 271 278 282 281 279 276 275 278 280 277 277 281 283 285 290 290 292 295 297 298 297 296 295 291 288 290 294 296 299 299 301 297 285 280 277 274 269
255 247 252 261 270 268 258 266 273 274 273 273 273 271 268 269 273 278 281 279 281 284 286 289 293 292 291 293 293 290 288 291 293 298 299 298 297 295 282 279 277 270 265
259 263 261 260 279 269 263 266 265 261 265 274 273 268 264 266 270 276 279 279 278 279 280 282 285 288 288 290 290 286 286 288 292 296 300 299 293 285 279 282 283 277 266
256 258 257 262 266 258 247 252 263 265 271 272 268 266 265 269 274 278 277 273 272 276 280 284 287 282 281 284 285 283 283 286 291 294 297 298 292 277 270 277 284 282 266
258 254 250 254 253 254 255 262 259 268 274 268 262 259 262 267 272 274 273 271 272 277 282 282 278 277 280 281 283 283 283 284 287 289 295 291 287 275 266 275 285 284 274
253 242 238 242 237 239 247 243 249 262 266 264 261 263 267 272 276 275 274 273 273 276 278 281 275 275 276 279 283 282 282 280 284 290 291 291 286 270 262 270 281 283 278
Height
5916 5913 5912 5913 5913 5914 5914 5914 5915 5915 5915 5915 5914 5914 5913 5912 5910 5909 5908 5907 5907 5907 5906 5905 5903 5903 5904 5904 5905 5904 5903 5902 5902 5902 5902 5902 5902 5901 5901 5901 5901 5901 5899
5919 5916 5916 5917 5916 5916 5917 5917 5917 5916 5916 5916 5916 5916 5915 5914 5912 5911 5910 5909 5908 5908 5907 5906 5905 5905 5906 5906 5906 5905 5905 5904 5903 5902 5902 5902 5902 5901 5900 5900 5900 5901 5901
5919 5919 5920 5921 5920 5919 5919 5919 5919 5919 5918 5918 5917 5917 5917 5916 5914 5913 5911 5911 5910 5909 5908 5907 5906 5906 5906 5906 5907 5907 5906 5905 5904 5903 5902 5901 5901 5900 5899 5899 5899 5900 5901
5922 5922 5923 5924 5923 5923 5922 5921 5921 5920 5920 5919 5918 5917 5917 5917 5916 5914 5912 5912 5911 5909 5909 5908 5907 5907 5907 5907 5907 5907 5906 5905 5905 5904 5903 5901 5900 5900 5899 5898 5898 5899 5900
5924 5924 5924 5925 5925 5925 5925 5924 5922 5922 5922 5921 5920 5919 5918 5917 5916 5915 5914 5912 5911 5909 5909 5908 5908 5907 5907 5906 5906 5906 5905 5905 5904 5904 5903 5902 5900 5900 5899 5898 5898 5898 5899
5925 5925 5925 5925 5925 5925 5926 5926 5925 5923 5923 5922 5921 5920 5919 5918 5917 5916 5916 5914 5913 5911 5909 5908 5907 5907 5906 5905 5905 5905 5904 5904 5904 5903 5902 5901 5899 5898 5897 5897 5897 5897 5897
5928 5926 5926 5926 5926 5925 5925 5925 5926 5925 5924 5924 5922 5921 5920 5919 5919 5918 5916 5915 5914 5912 5910 5908 5906 5905 5905 5905 5904 5904 5904 5903 5903 5902 5900 5899 5899 5898 5896 5896 5895 5895 5895
5928 5927 5927 5927 5926 5926 5926 5926 5925 5925 5925 5924 5923 5922 5921 5919 5919 5918 5917 5915 5914 5912 5911 5908 5907 5906 5905 5905 5904 5903 5904 5903 5902 5900 5899 5898 5897 5896 5895 5895 5894 5894 5893
5928 5928 5927 5927 5926 5926 5926 5926 5926 5925 5925 5924 5923 5922 5921 5919 5918 5918 5917 5915 5914 5913 5911 5909 5907 5905 5905 5904 5903 5902 5901 5901 5901 5899 5897 5897 5896 5894 5893 5893 5893 5892 5892
5926 5928 5928 5927 5927 5926 5926 5925 5925 5924 5924 5924 5923 5921 5920 5919 5918 5918 5916 5914 5913 5911 5910 5908 5907 5905 5904 5903 5902 5901 5900 5900 5898 5898 5896 5894 5893 5892 5891 5890 5889 5889 5889
5926 5927 5927 5928 5928 5927 5926 5925 5924 5923 5921 5921 5922 5921 5919 5918 5918 5916 5915 5914 5912 5911 5909 5907 5906 5905 5903 5902 5901 5899 5899 5899 5898 5896 5895 5893 5891 5889 5888 5887 5886 5886 5886
5925 5926 5924 5924 5926 5926 5924 5923 5923 5922 5921 5919 5920 5919 5918 5917 5916 5915 5914 5912 5911 5910 5908 5906 5904 5903 5902 5900 5899 5898 5897 5896 5896 5895 5893 5891 5890 5888 5886 5884 5883 5883 5883
5923 5924 5922 5922 5923 5923 5922 5921 5921 5920 5920 5917 5917 5916 5916 5914 5914 5913 5912 5911 5910 5908 5906 5905 5903 5902 5900 5898 5897 5896 5895 5894 5894 5893 5892 5889 5888 5886 5883 5881 5880 5880 5878
5921 5921 5921 5920 5920 5920 5919 5918 5918 5918 5918 5915 5914 5914 5912 5912 5911 5910 5910 5909 5908 5906 5905 5903 5901 5900 5898 5897 5895 5894 5893 5892 5891 5890 5889 5888 5886 5883 5881 5879 5878 5877 5875
5919 5917 5919 5918 5917 5916 5915 5914 5915 5915 5915 5912 5911 5910 5910 5909 5908 5908 5907 5906 5905 5904 5902 5901 5899 5898 5897 5895 5893 5892 5890 5889 5888 5887 5886 5885 5884 5881 5878 5876 5874 5873 5873
5913 5912 5914 5914 5915 5914 5914 5913 5913 5912 5910 5909 5909 5908 5907 5906 5905 5905 5904 5903 5902 5900 5899 5898 5897 5896 5894 5892 5890 5889 5887 5885 5884 5883 5883 5882 5881 5879 5877 5874 5871 5870 5869
5905 5906 5910 5911 5911 5909 5910 5911 5911 5910 5908 5907 5907 5907 5905 5903 5901 5901 5901 5900 5899 5897 5896 5895 5893 5891 5889 5887 5887 5886 5884 5883 5881 5880 5878 5878 5877 5875 5873 5871 5869 5867 5866
5901 5902 5906 5907 5907 5906 5906 5905 5905 5905 5904 5903 5902 5902 5902 5901 5898 5897 5897 5896 5895 5893 5893 5892 5890 5887 5885 5882 5881 5880 5879 5878 5877 5876 5874 5873 5871 5870 5869 5867 5866 5864 5862
5896 5898 5901 5902 5902 5902 5901 5900 5899 5899 5898 5897 5897 5896 5896 5895 5894 5893 5893 5892 5891 5889 5888 5887 5885 5883 5880 5877 5876 5875 5874 5872 5871 5871 5870 5868 5866 5865 5864 5863 5861 5859 5858
5890 5891 5893 5895 5897 5897 5894 5892 5891 5891 5890 5890 5891 5890 5891 5891 5890 5890 5889 5887 5885 5884 5882 5881 5880 5878 5875 5873 5871 5871 5869 5867 5866 5866 5865 5863 5861 5859 5858 5858 5857 5855 5854
5884 5887 5888 5891 5893 5892 5888 5885 5884 5885 5884 5883 5882 5883 5884 5883 5883 5884 5884 5883 5880 5877 5876 5875 5874 5873 5870 5868 5867 5867 5865 5863 5863 5862 5860 5858 5856 5855 5854 5853 5853 5851 5850
5877 5878 5882 5886 5888 5885 5880 5876 5875 5877 5876 5875 5876 5877 5877 5877 5877 5877 5876 5876 5874 5872 5872 5871 5869 5867 5865 5864 5863 5862 5861 5859 5859 5858 5856 5854 5852 5851 5850 5849 5849 5848 5847
5868 5866 5866 5871 5875 5871 5870 5868 5866 5866 5868 5869 5869 5868 5869 5870 5871 5871 5871 5869 5867 5865 5866 5867 5866 5863 5860 5859 5858 5857 5856 5854 5853 5853 5851 5850 5848 5847 5846 5846 5845 5844 5843
5854 5852 5853 5857 5858 5857 5861 5858 5858 5857 5859 5862 5862 5863 5864 5863 5863 5864 5863 5862 5860 5859 5860 5861 5861 5858 5856 5853 5852 5851 5852 5849 5849 5848 5847 5846 5843 5842 5842 5840 5839 5838 5838
5839 5840 5842 5841 5841 5843 5847 5848 5850 5852 5853 5856 5856 5857 5857 5857 5856 5856 5855 5855 5853 5854 5854 5854 5855 5854 5852 5849 5847 5846 5846 5844 5843 5843 5842 5842 5840 5837 5836 5835 5834 5833 5833
5829 5829 5830 5828 5825 5826 5833 5839 5842 5844 5845 5848 5849 5848 5848 5848 5848 5847 5847 5847 5846 5846 5847 5847 5847 5847 5846 5844 5843 5841 5841 5840 5838 5838 5838 5838 5836 5833 5832 5831 5830 5829 5828